Showing default

COSMOS 2524, 43032

Orbit data source: Space-Track

COSMOS 2524, 43032 is a payload satellite owned by VVKO VKS (CIS) in LEO that was launched on Sat, 02 Dec 2017 UTC via a SOYUZ-2-1B launch vehicle from the Plesetsk Missile And Space Complex (PKMTR). Payload-class satellites include a variety of spacecraft equipped with specific instruments for various scientific and technological missions. These include communications satellites like Starlink; space stations such as the ISS; scientific satellites like the Hubble; Earth observation satellites from companies like Planet Labs, Umbra, and HawkEye 360; GPS; miniature CubeSats for education and research; and military/defense satellites.

Loading next visibility...
Identifier
43032, 2017-076A
Orbit
LEO
Country
Flag of CISCIS
Related business
Manufacturer
TSSKBP/ARSLO
Mission
Operational Defense Sigint
Bus & Motor
YANTAR'-LOTOS, 11D428
Mass
6,575 kg wet, ~6,500 kg dry
Launch date (UTC)
2017-12-02 (9 years ago)
Launch vehicle
SOYUZ-2-1B
Launch site
Plesetsk Missile And Space Complex (PKMTR)
Object type
Payload
Rocket body
Debris
Shape & HBR
Cyl + 2 Pan, 3.1 m
Radar Cross Section
16.222 m², Large (>1 m²)

Expand to show TLE details & history
Last TLE update: 22 hours ago

TLE from 22 hours ago
0 COSMOS 2524
1 43032U 17076A   26172.53847014 -.00000248  00000-0 -12304-3 0  9992
2 43032  67.1441 181.8986 0004899 224.3916 135.6777 13.97427796436212
Epoch: 2026-06-21T12:55Z
TLE epoch observation values (Epoch: 2026-06-21T12:55:23.820Z)
Latitude
0.00002°
Longitude
78.31206°
Altitude
907.378 km
Speed
7.397 km/s
True Right ascension
12h 07m 35s
True Declination
0° 00' 00"
Sunlit
Object was in daylight at epoch
Visualization orbit readout
Latitude
Unknown
Longitude
Unknown
Altitude
Unknown
Speed
Unknown
Apparent Right ascension
Unknown
Apparent Declination
Unknown
Sunlit
N/A
Visualization observer readout
Local Sidereal Time
21:35:08
Azimuth
Unknown
Elevation
Unknown
Doppler factor
Unknown
Orbital elements
Apogee altitude
904.631 km
Perigee altitude
897.499 km
Semi-major axis
7,279.202 km
Eccentricity
0.00049
Inclination
67.1441°
RAAN
181.8986°
Arg. of periapsis
224.3916°
True anomaly
135.71691°
Mean anomaly
135.6777°
Eccentric anomaly
135.6973°
Mean motion
3.49476 °/min
Orbital period
103.01 mins
BSTAR
-0.00012304
Loading maneuver chart data...
Computing Atmospheric mass density...
Loading historical data...
Loading historical data...
Loading historical data...
Loading historical data...
Loading historical data...
Loading historical data...
Loading historical data...
Other satellites on launch #76 in the year 2017 (2017-12-02 UTC)

Documentation

Showing up to 5 results
|